Погода в Сортавале

Погода в Сортавале : погода сейчас, прогноз погоды и архив. Всё, что Вы хотите узнать о погоде в Сортавале!

Хотите узнать прогноз погоды в Сортавале? Тогда Вам сюда: Погода в Сортавале

Поиск расширенной информации на нашем сайте:

Полезная информация:

Другие новости

Новости СМИ2

Главная страница сайта

Новости сайта

03.07.2017

Напоминаем, что на нашем специализированном сайте Метеоцентр.Азия вы можете получить высокодетализированные автоматические прогнозы погоды по пунктам России, СНГ и мира в авиационном формате (включающие направление и скорость ветра, видимость, явления погоды, количество и форму облачности, нижнюю и верхнюю границу облачности).

Рекомендуем:

Погода в Сортавале - сегодня

Время (UTC), дата Ветер
(°,м/с) 
Видим.   Явления Облачность Т
(°С)
Тd
(°С)
f(%) Тe
(°С)
Pmin
(гПа)
dP
(гПа)
Po
(мм)
O2
(г/м3)
Тmin Tmax R s Состояние
почвы
09 15.09.19 170 (Ю) 20000 м  {туман}  10/8 720 м кучево-дожд., средняя 
[Cb cap|As op]
+10.6 +7.2 79 +10  1001.6  -4.5  750  290           
12 15.09.19 170 (Ю) 7-13{13}  10 км  слаб. ливневой дождь{туман}  10/8 700 м кучево-дожд., средняя 
[Cb cap|As op]
+8.9 +5.6 80 +7  996.5  -5.2  746  290           
15 15.09.19 160 (Ю) 5-10{13}  11000 м  слаб. ливневой дождь  10/10 450 м кучево-дожд. 
[Cb cap]
+9.4 +7.9 90 +8  989.6  -6.8  741  287         
18 15.09.19 150 (ЮВ) 5{10}  3900 м  ливневой дождь  10/10 480 м кучево-дожд. 
[Cb cap]
+10 +9.3 95 +10  983.6  -6  736  284    +11.1     
21 15.09.19 230 (ЮЗ) 50000 м  {ливн. осадки}  10/4 600 м кучево-дожд., средняя 
[Cb cap|Ac und]
+8.9 +8.3 96 +9  982.4  -1.2  735  285           
00 16.09.19 250 (З) 35000 м  {ливн. осадки}  10/10 720 м кучево-дожд. 
[Cb cap]
+8.5 +7.7 95 +9  982.5  0.1  735  286           
03 16.09.19 220 (ЮЗ) 13000 м  слаб. ливневой дождь  9/9 480 м кучево-дожд. 
[Cb cap]
+8.5 +7.7 95 +10  982.1  -0.4  735  286  +7.9       
06 16.09.19 290 (З) 20000 м  {ливн. осадки}  10/8 600 м кучево-дожд., средняя 
[Cb cap|Ac trans]
+9.4 +8.2 92 +10  981.7  -0.4  735  285  +7.9      влажная 
09 16.09.19 030 (СВ) 8000 м  слаб. ливневой дождь  10/10 720 м кучево-дожд. 
[Cb cap]
+8.7 +7.3 91 +8  984.2  2.5  737  286           
12 16.09.19 350 (С) 9000 м  слаб. ливневой дождь  10/10 1200 м кучево-дожд. 
[Cb cap]
+8.6 +7.2 91 +8  987.4  3.2  739  287           
15 16.09.19 320 (СЗ) 2{10}  20000 м  {ливн. осадки}  9/3 1000 м кучево-дожд., средняя, верхняя 
[Cb cap|Ac trans|Ci fib]
+9.1 +6.1 81 +9  989.7  2.3  741  288      0.7     
18 16.09.19 310 (СЗ) 50000 м  {ливн. осадки}  10/10 930 м 
[Sc]
+8.2 +5.5 83 +8  990.8  1.1  741  289    +10.5  0.7     
21 16.09.19 320 (СЗ) 11000 м  слаб. ливневой дождь  10/10 720 м кучево-дожд. 
[Cb cap]
+7.5 +6.1 91 +7  991.3  0.5  742  290           
00 17.09.19 320 (СЗ) 11000 м  слаб. ливневой дождь  10/10 500 м кучево-дожд. 
[Cb cap]
+7.6 +6.7 94 +8  991.7  0.4  742  290           
03 17.09.19 310 (СЗ) 9000 м  слаб. морось{ливн. осадки}  10/10 270 м 
[St]
+7.6 +6.8 95 +9  992.1  0.4  742  290  +7.4    0.7     
06 17.09.19 350 (С) 20000 м  {ливн. осадки, морось}  9/6 900 м кучево-дожд., средняя 
[Cb cap|Ac trans]
+8.8 +7.4 91 +9  992.7  0.6  743  289  +7.4      влажная 
09 17.09.19 030 (СВ) 20000 м    8/8 1380 м кучево-дожд. 
[Cb cap]
+11.1 +6.9 75 +11  994.1  1.4  744  287           
12 17.09.19 050 (СВ) 20000 м    8/4 1000 м кучево-дожд., средняя 
[Cb cap|Ac trans]
+10.8 +4.5 65 +10  995.2  1.1  745  288           
15 17.09.19 030 (СВ) 20000 м    9/9 1380 м кучево-дожд. 
[Cb cap]
+9.8 +5.5 75 +10  996.2  746  289           
18 17.09.19 320 (СЗ) 50000 м  {ливн. осадки}  8/1 600 м кучево-дожд., средняя 
[Cb cap|Ac trans]
+6.4 +5.4 93 +7  997.3  746  293    +12.1  0.0     
21 17.09.19 020 (С) 50000 м    9/0 средняя 
[Ac trans]
+6.4 +4.7 89 +6  998  0.7  747  293           
00 18.09.19 350 (С) 50000 м    3/0 средняя 
[Ac trans]
+4.1 +3.1 93 +5  998.8  0.8  747  296           
03 18.09.19 350 (С) 50000 м    9/3 600 м средняя 
[Sc|Ac trans]
+4.8 +3.8 93 +4  1000.1  1.3  748  296  +3.4         
06 18.09.19 320 (СЗ) 20000 м    9/3 600 м средняя, верхняя 
[Sc|Ac trans|Ci fib]
+6.2 +4.6 89 +6  1001.6  1.5  749  295  +3.4        влажная 
09 18.09.19 010 (С) 20000 м    8/4 600 м средняя, верхняя 
[Sc|Ac trans|Ci fib]
+9.4 +2.3 61 +8  1003.1  1.5  751  292           
Время (UTC), дата Ветер
(°,м/с) 
Видим.   Явления Облачность Т
(°С)
Тd
(°С)
f(%) Тe
(°С)
Pmin
(гПа)
dP
(гПа)
Po
(мм)
O2
(г/м3)
Тmin Tmax R s Состояние
почвы

Для получения пояснительной информации подведите курсор к названию столбца.

ПОГОДА в Сортавале - архив

Всё, что Вы хотите узнать о погоде в Сортавале - удобно и подробно!

Выберите нужную дату (начиная с 1 января 2018* года) и нажмите кнопку "Найти".
Будут отображены архивные сводки погоды по пункту Сортавала, начиная с указанной даты.


Отображать данные в формате CSV (для использования в таблицах Excel)


Внимание! Наш архив погоды предназначен исключительно для личного некоммерческого использования в познавательных целях. Если Вам необходимы официальные справки о состоянии погоды (для производственных, юридических, коммерческих и т.п. целей), обращайтесь в органы Росгидромета.

*Примечание: данная дата относится к архиву по метеостанциям СССР (Россия, СНГ, Балтия).
Архив по метеостанциям Зарубежной Европы и Азии (кроме Китая) хранится 10 дней, по другим регионам земного шара (Китай, Африка, Америка, Австралия, Океания) - 1 день.

Сортавала - район местоположения метеостанции


Название, широта, долгота, высота метеостанции:
Сортавала 61.7°ш. 30.7°д. 19 м над ур. моря [Российская Федерация]

Дополнительная информация

В oтличие oт бoльшинства пoгoдных сайтoв мы публикуем пoдрoбную метеoинфoрмацию в детальнoм прoфессиoнальнoм фoрмате.

Характеристики температуры и влажнoсти вoздуха измеряются на высoте 2 м в тени вдали oт зданий и деревьев.
Скoрoсть ветра измеряется на высoте 10 м (на урoвне рoста челoвека скoрoсть ветра ниже в 1.5-2 раза). Если метеoстанция нахoдится в гoрoде или в лесу, тo скoрoсть ветра занижена на 2-4 м/с пo сравнению с oткрытым местoм. Скoрoсть ветра над акватoриями крупных рек и oзёр, а также на вершинах хoлмoв на 2-5 м/с выше, чем в oбычных услoвиях.
Атмoсфернoе давление в разных тoчках местнoсти мoжет значительнo oтличаться oт давления на метеoстанции, в зависимoсти oт услoвий рельефа (при пoдъёме на 10 м давление пoнижается примернo на 1 мм рт.ст.).